STARLINK-1132, 45044

Orbit data source: Space-Track

STARLINK-1132, 45044 is a payload satellite owned by SpaceX/Seattle (US) in LEO that was launched on Wed, 29 Jan 2020 UTC via an FALCON 9 launch vehicle from the Air Force Eastern Test Range (AFETR). Payload-class satellites include a variety of spacecraft equipped with specific instruments for various scientific and technological missions. These include communications satellites like Starlink; space stations such as the ISS; scientific satellites like the Hubble; Earth observation satellites from companies like Planet Labs, Umbra, and HawkEye 360; GPS; miniature CubeSats for education and research; and military/defense satellites.

Loading next visibility...
Identifier
45044, 2020-006A
Orbit
LEO
Country
Flag of USUS
Related business
Manufacturer
SpaceX/Seattle
Mission
Operational Commercial Communications
Bus & Motor
STARLINK, Unknown motor
Mass
260 kg wet, ~248 kg dry
Launch date (UTC)
2020-01-29 (6 years ago)
Launch vehicle
FALCON 9
Launch site
Air Force Eastern Test Range (AFETR)
Object type
Payload
Rocket body
Debris
Shape & HBR
Box + 1 Pan, 4.4 m
Radar Cross Section
13.562 m², Large (>1 m²)

Expand to show TLE details & history
Last TLE update: 15 hours ago

TLE from 15 hours ago
0 STARLINK-1132
1 45044U 20006A   25245.69254952  .00006464  00000-0  45213-3 0  9993
2 45044  53.0563  30.5689 0001451  94.9295 265.1860 15.06424922308409
Epoch: 2025-09-02T16:37Z
TLE epoch observation values (Epoch: 2025-09-02T16:37:16.278Z)
Latitude
Longitude
159.17094°
Altitude
548.099 km
Speed
7.589 km/s
True Right ascension
02h 02m 16s
True Declination
0° 00' 00"
Sunlit
Object was in full shadow at epoch
Visualization orbit readout
Latitude
Unknown
Longitude
Unknown
Altitude
Unknown
Speed
Unknown
Apparent Right ascension
Unknown
Apparent Declination
Unknown
Sunlit
N/A
Visualization observer readout
Local Sidereal Time
22:58:38
Azimuth
Unknown
Elevation
Unknown
Doppler factor
Unknown
Orbital elements
Apogee altitude
548.411 km
Perigee altitude
546.401 km
Semi-major axis
6,925.543 km
Eccentricity
0.00015
Inclination
53.0563°
RAAN
30.5689°
Arg. of periapsis
94.9295°
True anomaly
265.16943°
Mean anomaly
265.186°
Eccentric anomaly
265.17772°
Mean motion
3.76585 °/min
Orbital period
95.6 mins
BSTAR
0.00045213
Loading maneuver chart data...
Computing Atmospheric mass density...

Documentation

Showing up to 5 results
|